| time (UTC) | temp F | wind direction | speed knots | gust knots | rain 1hr in | rain 24hr in | rain mn in | humidity % | barometer mb |
| 20260505012504 | 76 | 260 | 2.6 | 7.8 | 0.00 | 0.00 | 0.00 | 67 | 994.3 |
| 20260505011504 | 76 | 292 | 2.6 | 6.1 | 0.00 | 0.00 | 0.00 | 66 | 994.3 |
| 20260505011004 | 76 | 309 | 4.3 | 8.7 | 0.00 | 0.00 | 0.00 | 65 | 994.3 |
| 20260505010505 | 77 | 224 | 2.6 | 10.4 | 0.00 | 0.00 | 0.00 | 65 | 994.3 |
| 20260505010005 | 77 | 19 | 5.2 | 7.8 | 0.00 | 0.00 | 0.00 | 64 | 994.4 |
| 20260505005504 | 77 | 222 | 2.6 | 7.8 | 0.00 | 0.00 | 0.00 | 64 | 994.3 |
| 20260505005005 | 77 | 268 | 1.7 | 5.2 | 0.00 | 0.00 | 0.00 | 64 | 994.3 |
| 20260505004504 | 77 | 301 | 2.6 | 7.8 | 0.00 | 0.00 | 0.00 | 63 | 994.3 |
| 20260505004004 | 78 | 246 | 3.5 | 8.7 | 0.00 | 0.00 | 0.00 | 63 | 994.3 |
| 20260505003505 | 78 | 299 | 2.6 | 7.8 | 0.00 | 0.00 | 0.00 | 63 | 994.3 |
| 20260505003004 | 78 | 297 | 4.3 | 8.7 | 0.00 | 0.00 | 0.00 | 62 | 994.4 |
| 20260505002504 | 79 | 311 | 2.6 | 7.0 | 0.00 | 0.00 | 0.00 | 62 | 994.3 |
| 20260505002004 | 79 | 336 | 2.6 | 8.7 | 0.00 | 0.00 | 0.00 | 61 | 994.2 |
| 20260505001504 | 79 | 340 | 1.7 | 8.7 | 0.00 | 0.00 | 0.00 | 61 | 994.2 |
| 20260505001004 | 79 | 294 | 3.5 | 8.7 | 0.00 | 0.00 | 0.00 | 60 | 994.2 |
| 20260505000505 | 80 | 353 | 6.1 | 14.8 | 0.00 | 0.00 | 0.00 | 60 | 994.0 |
| 20260505000004 | 80 | 334 | 4.3 | 13.0 | 0.00 | 0.00 | 0.00 | 60 | 994.1 |
| 20260504235505 | 80 | 346 | 4.3 | 12.2 | 0.00 | 0.00 | 0.00 | 60 | 994.3 |
| 20260504234504 | 81 | 331 | 3.5 | 7.0 | 0.00 | 0.00 | 0.00 | 59 | 994.5 |
| 20260504234004 | 81 | 331 | 2.6 | 7.0 | 0.00 | 0.00 | 0.00 | 58 | 994.3 |
| 20260504233504 | 81 | 165 | 4.3 | 11.3 | 0.00 | 0.00 | 0.00 | 59 | 994.3 |
| 20260504233005 | 81 | 276 | 4.3 | 7.0 | 0.00 | 0.00 | 0.00 | 58 | 994.4 |
| 20260504232504 | 81 | 296 | 2.6 | 7.0 | 0.00 | 0.00 | 0.00 | 58 | 994.5 |
| 20260504232004 | 81 | 303 | 4.3 | 7.0 | 0.00 | 0.00 | 0.00 | 58 | 994.6 |
| 20260504231505 | 81 | 329 | 2.6 | 7.8 | 0.00 | 0.00 | 0.00 | 58 | 994.5 |
| 20260504231004 | 81 | 340 | 4.3 | 7.8 | 0.00 | 0.00 | 0.00 | 57 | 994.5 |
| 20260504230504 | 81 | 278 | 4.3 | 8.7 | 0.00 | 0.00 | 0.00 | 57 | 994.7 |
| 20260504230005 | 82 | 118 | 2.6 | 12.2 | 0.00 | 0.00 | 0.00 | 56 | 994.7 |
| 20260504225504 | 83 | 308 | 4.3 | 12.2 | 0.00 | 0.00 | 0.00 | 55 | 994.7 |
| 20260504225005 | 83 | 259 | 2.6 | 8.7 | 0.00 | 0.00 | 0.00 | 55 | 994.7 |
| 20260504224005 | 83 | 300 | 2.6 | 7.8 | 0.00 | 0.00 | 0.00 | 56 | 994.9 |
| 20260504223505 | 83 | 228 | 4.3 | 8.7 | 0.00 | 0.00 | 0.00 | 55 | 994.9 |
| 20260504223004 | 83 | 282 | 2.6 | 7.0 | 0.00 | 0.00 | 0.00 | 55 | 994.9 |
| 20260504222505 | 83 | 212 | 3.5 | 7.8 | 0.00 | 0.00 | 0.00 | 55 | 994.8 |
| 20260504222005 | 83 | 304 | 4.3 | 8.7 | 0.00 | 0.00 | 0.00 | 56 | 995.0 |
| 20260504221504 | 83 | 303 | 2.6 | 8.7 | 0.00 | 0.00 | 0.00 | 55 | 995.2 |
| 20260504221005 | 83 | 347 | 2.6 | 12.2 | 0.00 | 0.00 | 0.00 | 55 | 995.1 |
| 20260504220504 | 83 | 302 | 4.3 | 10.4 | 0.00 | 0.00 | 0.00 | 56 | 995.0 |
| 20260504215504 | 83 | 279 | 3.5 | 10.4 | 0.00 | 0.00 | 0.00 | 55 | 995.3 |
| 20260504215004 | 83 | 275 | 4.3 | 10.4 | 0.00 | 0.00 | 0.00 | 55 | 995.2 |
| 20260504214505 | 84 | 321 | 4.3 | 7.0 | 0.00 | 0.00 | 0.00 | 55 | 995.1 |
| 20260504214004 | 83 | 321 | 2.6 | 7.8 | 0.00 | 0.00 | 0.00 | 55 | 995.2 |
| 20260504213004 | 83 | 16 | 2.6 | 11.3 | 0.00 | 0.00 | 0.00 | 55 | 995.2 |
| 20260504212504 | 83 | 10 | 2.6 | 7.8 | 0.00 | 0.00 | 0.00 | 55 | 995.4 |
| 20260504212004 | 84 | 288 | 4.3 | 8.7 | 0.00 | 0.00 | 0.00 | 54 | 995.6 |
| 20260504211504 | 83 | 264 | 1.7 | 7.0 | 0.00 | 0.00 | 0.00 | 55 | 995.8 |
| 20260504211004 | 83 | 346 | 2.6 | 7.8 | 0.00 | 0.00 | 0.00 | 55 | 995.9 |
| 20260504210504 | 83 | 315 | 4.3 | 7.0 | 0.00 | 0.00 | 0.00 | 56 | 996.0 |
| 20260504205504 | 82 | 346 | 2.6 | 8.7 | 0.00 | 0.00 | 0.00 | 56 | 996.2 |
| 20260504205004 | 82 | 87 | 4.3 | 12.2 | 0.00 | 0.00 | 0.00 | 57 | 996.3 |
| 20260504204504 | 82 | 288 | 2.6 | 8.7 | 0.00 | 0.00 | 0.00 | 57 | 996.3 |
| 20260504203504 | 82 | 261 | 5.2 | 7.8 | 0.00 | 0.00 | 0.00 | 56 | 996.3 |
| 20260504203004 | 82 | 347 | 1.7 | 7.8 | 0.00 | 0.00 | 0.00 | 58 | 996.4 |
| 20260504202504 | 81 | 267 | 4.3 | 7.8 | 0.00 | 0.00 | 0.00 | 56 | 996.6 |
| 20260504202004 | 81 | 267 | 4.3 | 7.8 | 0.00 | 0.00 | 0.00 | 57 | 996.6 |
| 20260504201505 | 82 | 249 | 5.2 | 13.0 | 0.00 | 0.00 | 0.00 | 56 | 996.7 |
| 20260504201004 | 82 | 300 | 3.5 | 13.0 | 0.00 | 0.00 | 0.00 | 57 | 996.8 |
| 20260504200004 | 81 | 290 | 2.6 | 7.8 | 0.00 | 0.00 | 0.00 | 58 | 997.0 |
| 20260504195504 | 81 | 287 | 4.3 | 7.8 | 0.00 | 0.00 | 0.00 | 57 | 997.0 |
| 20260504195004 | 81 | 2 | 4.3 | 11.3 | 0.00 | 0.00 | 0.00 | 56 | 997.3 |
| 20260504194504 | 81 | 269 | 4.3 | 10.4 | 0.00 | 0.00 | 0.00 | 56 | 997.3 |
| 20260504194004 | 81 | 306 | 2.6 | 8.7 | 0.00 | 0.00 | 0.00 | 58 | 997.6 |
| 20260504193504 | 80 | 295 | 2.6 | 8.7 | 0.00 | 0.00 | 0.00 | 58 | 997.6 |
| 20260504192504 | 80 | 335 | 2.6 | 7.0 | 0.00 | 0.00 | 0.00 | 59 | 997.7 |
| 20260504191504 | 80 | 326 | 5.2 | 11.3 | 0.00 | 0.00 | 0.00 | 60 | 997.8 |
| 20260504191004 | 80 | 275 | 4.3 | 10.4 | 0.00 | 0.00 | 0.00 | 59 | 997.9 |
| 20260504190004 | 79 | 299 | 2.6 | 7.8 | 0.00 | 0.00 | 0.00 | 60 | 998.1 |
| 20260504185504 | 78 | 286 | 2.6 | 11.3 | 0.00 | 0.00 | 0.00 | 61 | 998.2 |
| 20260504185005 | 78 | 309 | 2.6 | 8.7 | 0.00 | 0.00 | 0.00 | 61 | 998.2 |
| 20260504184505 | 79 | 324 | 2.6 | 7.0 | 0.00 | 0.00 | 0.00 | 60 | 998.0 |
| 20260504184004 | 79 | 322 | 4.3 | 6.1 | 0.00 | 0.00 | 0.00 | 60 | 998.1 |
| 20260504183504 | 79 | 304 | 2.6 | 7.8 | 0.00 | 0.00 | 0.00 | 61 | 998.1 |
| 20260504183004 | 78 | 283 | 2.6 | 8.7 | 0.00 | 0.00 | 0.00 | 61 | 998.3 |
| 20260504182504 | 77 | 272 | 4.3 | 14.8 | 0.00 | 0.00 | 0.00 | 62 | 998.6 |
| 20260504181505 | 78 | 306 | 2.6 | 7.8 | 0.00 | 0.00 | 0.00 | 62 | 998.6 |
| 20260504181005 | 77 | 313 | 4.3 | 8.7 | 0.00 | 0.00 | 0.00 | 63 | 998.7 |
| 20260504180504 | 77 | 247 | 2.6 | 7.0 | 0.00 | 0.00 | 0.00 | 63 | 998.7 |
| 20260504180004 | 76 | 284 | 4.3 | 11.3 | 0.00 | 0.00 | 0.00 | 64 | 998.8 |
| 20260504175504 | 76 | 253 | 1.7 | 7.8 | 0.00 | 0.00 | 0.00 | 64 | 999.0 |
| 20260504174004 | 76 | 312 | 1.7 | 11.3 | 0.00 | 0.00 | 0.00 | 63 | 999.0 |
| 20260504173504 | 75 | 272 | 1.7 | 5.2 | 0.00 | 0.00 | 0.00 | 64 | 999.1 |
| 20260504173005 | 75 | 301 | 1.7 | 10.4 | 0.00 | 0.00 | 0.00 | 66 | 999.3 |
| 20260504172504 | 75 | 344 | 4.3 | 10.4 | 0.00 | 0.00 | 0.00 | 65 | 999.4 |
| 20260504172004 | 74 | 4 | 2.6 | 7.8 | 0.00 | 0.00 | 0.00 | 67 | 999.5 |
| 20260504171505 | 73 | 164 | 3.5 | 12.2 | 0.00 | 0.00 | 0.00 | 68 | 999.5 |
| 20260504171005 | 73 | 65 | 2.6 | 12.2 | 0.00 | 0.00 | 0.00 | 68 | 999.8 |
| 20260504170504 | 73 | 324 | 5.2 | 11.3 | 0.00 | 0.00 | 0.00 | 68 | 999.8 |
| 20260504151004 | 71 | 328 | 5.2 | 11.3 | 0.00 | 0.00 | 0.00 | 69 | 1000.2 |
| 20260504150504 | 71 | 255 | 2.6 | 8.7 | 0.00 | 0.00 | 0.00 | 69 | 1000.2 |
| 20260504141004 | 67 | 289 | 2.6 | 8.7 | 0.00 | 0.00 | 0.00 | 74 | 1000.2 |
| 20260504140504 | 67 | 292 | 2.6 | 12.2 | 0.00 | 0.00 | 0.00 | 74 | 1000.2 |
| 20260504130504 | 62 | 266 | 1.7 | 2.6 | 0.00 | 0.00 | 0.00 | 81 | 1000.3 |
| 20260504081504 | 62 | 255 | 4.3 | 7.0 | 0.00 | 0.00 | 0.00 | 76 | 1000.2 |
| 20260504081004 | 62 | 228 | 1.7 | 2.6 | 0.00 | 0.00 | 0.00 | 76 | 1000.3 |
| 20260504080504 | 62 | 250 | 1.7 | 8.7 | 0.00 | 0.00 | 0.00 | 75 | 1000.6 |
| 20260504050005 | 65 | 239 | 1.7 | 4.3 | 0.00 | 0.00 | 0.00 | 62 | 1002.5 |
| 20260504045504 | 65 | 262 | 1.7 | 5.2 | 0.00 | 0.00 | 0.00 | 61 | 1002.6 |
| 20260504045004 | 65 | 253 | 0.9 | 2.6 | 0.00 | 0.00 | 0.00 | 60 | 1002.5 |
| 20260504044504 | 64 | 253 | 1.7 | 2.6 | 0.00 | 0.00 | 0.00 | 60 | 1002.6 |
| 20260504043004 | 65 | 276 | 0.0 | 1.7 | 0.00 | 0.00 | 0.00 | 58 | 1002.8 |
| 20260504042504 | 65 | 268 | 0.0 | 2.6 | 0.00 | 0.00 | 0.00 | 58 | 1002.7 |
| 20260504040504 | 65 | 248 | 0.9 | 1.7 | 0.00 | 0.00 | 0.00 | 55 | 1002.8 |
| 20260504040004 | 65 | 254 | 0.0 | 0.9 | 0.00 | 0.00 | 0.00 | 56 | 1002.7 |
| 20260504035004 | 65 | 267 | 0.0 | 0.0 | 0.00 | 0.00 | 0.00 | 56 | 1002.7 |
| 20260504034505 | 65 | 265 | 0.0 | 0.0 | 0.00 | 0.00 | 0.00 | 56 | 1002.7 |
| 20260504034005 | 65 | 257 | 0.0 | 0.0 | 0.00 | 0.00 | 0.00 | 55 | 1002.8 |
| 20260504033004 | 66 | 262 | 0.0 | 0.0 | 0.00 | 0.00 | 0.00 | 54 | 1002.9 |
| 20260504032504 | 66 | 262 | 0.0 | 0.0 | 0.00 | 0.00 | 0.00 | 55 | 1002.8 |
| 20260504032004 | 66 | 246 | 0.0 | 0.0 | 0.00 | 0.00 | 0.00 | 54 | 1002.6 |
| 20260504031504 | 66 | 258 | 0.0 | 0.0 | 0.00 | 0.00 | 0.00 | 54 | 1002.8 |
| 20260504030504 | 67 | 273 | 0.0 | 0.9 | 0.00 | 0.00 | 0.00 | 53 | 1002.6 |
| 20260504030004 | 67 | 284 | 0.0 | 0.9 | 0.00 | 0.00 | 0.00 | 52 | 1002.8 |
| 20260504025504 | 67 | 334 | 0.0 | 1.7 | 0.00 | 0.00 | 0.00 | 52 | 1002.8 |
| 20260504025005 | 67 | 300 | 0.0 | 1.7 | 0.00 | 0.00 | 0.00 | 52 | 1002.8 |
| 20260504024004 | 67 | 257 | 0.0 | 0.0 | 0.00 | 0.00 | 0.00 | 52 | 1002.9 |
| 20260504023504 | 67 | 260 | 0.0 | 0.0 | 0.00 | 0.00 | 0.00 | 51 | 1002.9 |
| 20260504023005 | 68 | 250 | 0.0 | 0.9 | 0.00 | 0.00 | 0.00 | 51 | 1002.9 |
| 20260504022004 | 68 | 238 | 0.0 | 0.0 | 0.00 | 0.00 | 0.00 | 51 | 1002.7 |
| 20260504021504 | 68 | 262 | 0.0 | 0.0 | 0.00 | 0.00 | 0.00 | 50 | 1002.8 |
| 20260504021004 | 68 | 257 | 0.0 | 0.0 | 0.00 | 0.00 | 0.00 | 50 | 1002.8 |
| 20260504020004 | 69 | 262 | 0.0 | 0.0 | 0.00 | 0.00 | 0.00 | 48 | 1002.6 |
| 20260504015504 | 69 | 242 | 0.0 | 0.0 | 0.00 | 0.00 | 0.00 | 48 | 1002.6 |
| 20260504015005 | 70 | 241 | 0.0 | 0.0 | 0.00 | 0.00 | 0.00 | 46 | 1002.4 |
| 20260504014005 | 70 | 254 | 0.9 | 1.7 | 0.00 | 0.00 | 0.00 | 45 | 1002.4 |
| 20260504013005 | 70 | 230 | 0.9 | 2.6 | 0.00 | 0.00 | 0.00 | 44 | 1002.1 |